Regional Weather Roundup
Issued by NWS

Home | Current Version | Previous Version | Text Only | Print | Product List | Glossary Off
Versions: 1 2 3 4 5 6 7 8 9 10 11 12 13 14 15 16 17 18 19 20 21 22 23 24 25 26 27

000
ASUS45 KSLC 232110
RWRUT

UTAH REGIONAL WEATHER ROUNDUP
NATIONAL WEATHER SERVICE SALT LAKE CITY UT
300 PM MDT TUE MAY 23 2017

UTZ001>011-023>025-232200-

NORTHERN UTAH

CITY           SKY/WX    TMP DP  RH WIND       PRES   REMARKS
BRIGHAM CITY   SUNNY     74  34  23 S5        30.14F
DUGWAY         PTSUNNY   81  24  12 W6        30.11F
HILL AFB       MOSUNNY   74  39  28 W3        30.16F
LOGAN          SUNNY     76  43  30 VRB5      30.13F
OGDEN          MOSUNNY   75  39  27 CALM      30.13F
SALT LAKE CITY PTSUNNY   80  37  21 N9        30.12F
TOOELE VALLEY  SUNNY     77  43  29 NE8       30.13F
WENDOVER       SUNNY     79  36  21 E7        30.11F
HEBER CITY     MOSUNNY   79  37  22 W10       30.15F
WEST JORDAN    SUNNY     79  51  37 N12       30.14F

$$

UTZ011>015-024>027-232200-

CENTRAL/NORTHEAST UTAH

CITY           SKY/WX    TMP DP  RH WIND       PRES   REMARKS
PROVO AIRPORT  SUNNY     76  38  25 VRB5      30.14F
MOAB/CANYONLAN SUNNY     73  25  16 VRB3      30.14F
DELTA          SUNNY     77  27  15 NW7       30.14F
PRICE          SUNNY     70  35  27 SW7       30.17F
ROOSEVELT      SUNNY     70  32  24 E7        30.19F
VERNAL         SUNNY     65  33  30 CALM      30.19F

$$

UTZ013>016-019>022-027-232200-

SOUTHERN UTAH

CITY           SKY/WX    TMP DP  RH WIND       PRES   REMARKS
BRYCE CANYON   SUNNY     73  23  15 NW15G23   30.27F
CEDAR CITY     SUNNY     79  27  14 S8G16     30.17F
MILFORD        SUNNY     82  27  13 N9        30.14F
ST GEORGE      CLEAR     89  27  10 W7        30.01F
HANKSVILLE     SUNNY     73  27  17 E7        30.15F
BLANDING       SUNNY     72  25  17 NW12G20   30.24F

$$

REGIONAL REPORTS     COLORADO/ARIZONA

CITY           SKY/WX    TMP DP  RH WIND       PRES   REMARKS
CRAIG, CO      MOSUNNY   61  33  35 W9        30.24F
GRAND JUNCTION SUNNY     69  27  20 W6        30.15F
RIFLE, CO      SUNNY     69  12  11 NW10G22   30.18F
MONTROSE, CO   SUNNY     64  20  18 NE5       30.21F
CORTEZ, CO     SUNNY     71  19  14 NW17G26   30.16F
COLORADO CITY    N/A     86  28  12 SW3       30.15F
PAGE, AZ       SUNNY     80  33  18 NE6       30.12F
GRAND CANYON   MOSUNNY   75  21  13 N6        30.25F
KINGMAN, AZ    SUNNY     95  26   8 NE6G20    30.03F
FLAGSTAFF, AZ  SUNNY     73  19  13 VRB5      30.24F

$$

REGIONAL REPORTS    NEVADA/IDAHO/WYOMING

CITY           SKY/WX    TMP DP  RH WIND       PRES   REMARKS
LAS VEGAS, NV  MOSUNNY   97  23   7 N6        29.94F HX  90
ELY, NY        SUNNY     78  27  15 NW3G26    30.20F
ELKO, NV       SUNNY     79  29  16 VRB3G20   30.15F
POCATELLO, ID  MOSUNNY   76  42  29 W8        30.12F
BURLEY, ID     SUNNY     76  40  27 VRB5      30.09F
FORT BRIDGER,    N/A     70  32  25 NW14G22   30.26F
EVANSTON, WY   MOSUNNY   67  38  34 CALM      30.24F
ROCK SPRINGS,  SUNNY     63  20  19 MISG      30.22F
KEMMERER, WY     N/A     64  32  29 NW16      30.25S

$$




USA.gov is the U.S. government's official web portal to all federal, state and local government web resources and services.